| time (UTC) | temp F | wind direction | speed MPH | gust MPH | rain 1hr in | rain 24hr in | rain mn in | humidity % | barometer mb |
| 20260901094542 | 57 | 225 | 0.0 | 0.0 | 0.00 | 0.00 | 0.00 | 81 | 1010.9 |
| 20260901093007 | 57 | 225 | 0.0 | 0.0 | 0.00 | 0.00 | 0.00 | 81 | 1010.8 |
| 20260901091512 | 57 | 225 | 0.0 | 0.0 | 0.00 | 0.00 | 0.00 | 81 | 1010.8 |
| 20260901090109 | 58 | 225 | 0.0 | 0.0 | 0.00 | 0.00 | 0.00 | 80 | 1010.8 |
| 20260901084510 | 59 | 225 | 0.0 | 0.0 | 0.00 | 0.00 | 0.00 | 80 | 1010.8 |
| 20260901083048 | 59 | 225 | 0.0 | 0.0 | 0.00 | 0.00 | 0.00 | 79 | 1010.9 |
| 20260901081505 | 59 | 225 | 0.0 | 0.0 | 0.00 | 0.00 | 0.00 | 79 | 1011.1 |
| 20260901080112 | 60 | 225 | 0.0 | 0.0 | 0.00 | 0.00 | 0.00 | 79 | 1011.1 |
| 20260901074530 | 60 | 225 | 0.0 | 0.0 | 0.00 | 0.00 | 0.00 | 79 | 1011.4 |
| 20260901073129 | 60 | 225 | 0.0 | 0.0 | 0.00 | 0.00 | 0.00 | 79 | 1011.2 |
| 20260901071625 | 60 | 225 | 0.0 | 0.0 | 0.00 | 0.00 | 0.00 | 78 | 1011.1 |
| 20260901070035 | 60 | 225 | 0.0 | 0.0 | 0.00 | 0.00 | 0.06 | 78 | 1011.3 |
| 20260901064507 | 60 | 225 | 1.0 | 0.0 | 0.00 | 0.00 | 0.06 | 78 | 1011.4 |
| 20260901063123 | 60 | 225 | 0.0 | 0.0 | 0.00 | 0.00 | 0.06 | 77 | 1011.4 |
| 20260901061531 | 60 | 225 | 0.0 | 0.0 | 0.00 | 0.00 | 0.06 | 77 | 1011.1 |
| 20260901060011 | 60 | 225 | 0.0 | 0.0 | 0.00 | 0.00 | 0.06 | 77 | 1010.8 |
| 20260901054637 | 60 | 225 | 0.0 | 0.0 | 0.00 | 0.00 | 0.06 | 78 | 1011.4 |
| 20260901053052 | 61 | 225 | 0.0 | 0.0 | 0.00 | 0.00 | 0.06 | 77 | 1011.7 |
| 20260901051506 | 61 | 225 | 0.0 | 0.0 | 0.00 | 0.00 | 0.06 | 77 | 1011.5 |
| 20260901050127 | 60 | 225 | 0.0 | 0.0 | 0.00 | 0.00 | 0.06 | 77 | 1011.7 |
| 20260901044544 | 60 | 225 | 1.0 | 0.0 | 0.00 | 0.00 | 0.06 | 79 | 1011.8 |
| 20260901043024 | 59 | 225 | 1.0 | 0.0 | 0.00 | 0.00 | 0.06 | 80 | 1012.0 |
| 20260901041513 | 59 | 216 | 1.0 | 0.0 | 0.00 | 0.00 | 0.06 | 80 | 1012.0 |
| 20260901034505 | 60 | 216 | 0.0 | 0.0 | 0.00 | 0.00 | 0.06 | 79 | 1011.9 |
| 20260901033135 | 60 | 215 | 0.0 | 0.0 | 0.00 | 0.00 | 0.06 | 78 | 1012.0 |
| 20260901031614 | 61 | 216 | 0.0 | 0.0 | 0.00 | 0.00 | 0.06 | 77 | 1011.6 |
| 20260901030023 | 61 | 216 | 0.0 | 0.0 | 0.00 | 0.00 | 0.06 | 76 | 1011.4 |
| 20260901024508 | 61 | 215 | 0.0 | 0.0 | 0.00 | 0.00 | 0.06 | 75 | 1011.0 |
| 20260901023132 | 61 | 216 | 1.0 | 0.0 | 0.00 | 0.00 | 0.06 | 75 | 1010.8 |
| 20260901021604 | 61 | 209 | 0.0 | 0.0 | 0.00 | 0.00 | 0.06 | 75 | 1011.2 |
| 20260901020011 | 62 | 209 | 0.0 | 0.0 | 0.00 | 0.00 | 0.06 | 73 | 1011.6 |
| 20260901014634 | 62 | 209 | 1.0 | 0.0 | 0.00 | 0.00 | 0.06 | 73 | 1011.7 |
| 20260901013117 | 62 | 202 | 0.0 | 0.0 | 0.00 | 0.00 | 0.06 | 72 | 1011.5 |
| 20260901011518 | 62 | 202 | 2.0 | 0.0 | 0.00 | 0.00 | 0.06 | 71 | 1012.1 |
| 20260901010132 | 62 | 186 | 1.0 | 0.0 | 0.00 | 0.00 | 0.06 | 73 | 1012.5 |
| 20260901004617 | 62 | 187 | 2.0 | 0.0 | 0.00 | 0.00 | 0.06 | 73 | 1012.5 |
| 20260901003032 | 62 | 209 | 2.0 | 0.0 | 0.00 | 0.00 | 0.05 | 74 | 1012.5 |
| 20260901001504 | 63 | 191 | 1.0 | 0.0 | 0.00 | 0.00 | 0.05 | 75 | 1012.2 |
| 20260901000108 | 62 | 207 | 3.0 | 0.0 | 0.00 | 0.00 | 0.05 | 73 | 1012.2 |
| 20260831234502 | 63 | 210 | 4.0 | 0.0 | 0.00 | 0.00 | 0.05 | 71 | 1012.1 |
| 20260831233115 | 67 | 200 | 5.0 | 0.0 | 0.00 | 0.00 | 0.03 | 63 | 1011.4 |
| 20260831231508 | 71 | 181 | 10.0 | 0.0 | 0.00 | 0.00 | 0.00 | 47 | 1010.0 |
| 20260831230115 | 77 | 258 | 3.0 | 0.0 | 0.00 | 0.00 | 0.00 | 42 | 1008.6 |
| 20260831224510 | 79 | 194 | 1.0 | 0.0 | 0.00 | 0.00 | 0.00 | 46 | 1007.4 |
| 20260831223134 | 80 | 194 | 1.0 | 0.0 | 0.00 | 0.00 | 0.00 | 39 | 1007.1 |
| 20260831221537 | 81 | 194 | 2.0 | 0.0 | 0.00 | 0.00 | 0.00 | 33 | 1007.0 |
| 20260831220025 | 82 | 153 | 2.0 | 0.0 | 0.00 | 0.00 | 0.00 | 33 | 1006.9 |
| 20260831214502 | 83 | 129 | 3.0 | 0.0 | 0.00 | 0.00 | 0.00 | 33 | 1007.0 |
| 20260831213055 | 83 | 209 | 4.0 | 0.0 | 0.00 | 0.00 | 0.00 | 32 | 1007.4 |
| 20260831211524 | 84 | 202 | 3.0 | 0.0 | 0.00 | 0.00 | 0.00 | 32 | 1007.3 |
| 20260831210136 | 84 | 201 | 3.0 | 0.0 | 0.00 | 0.00 | 0.00 | 34 | 1007.5 |
| 20260831204610 | 83 | 201 | 4.0 | 0.0 | 0.00 | 0.00 | 0.00 | 32 | 1008.0 |
| 20260831203110 | 84 | 200 | 3.0 | 0.0 | 0.00 | 0.00 | 0.00 | 31 | 1008.0 |
| 20260831201521 | 84 | 186 | 2.0 | 0.0 | 0.00 | 0.00 | 0.00 | 31 | 1008.1 |
| 20260831200129 | 83 | 210 | 2.0 | 0.0 | 0.00 | 0.00 | 0.00 | 35 | 1008.3 |
| 20260831194639 | 82 | 233 | 1.0 | 0.0 | 0.00 | 0.00 | 0.00 | 38 | 1008.3 |
| 20260831193034 | 81 | 234 | 1.0 | 0.0 | 0.00 | 0.00 | 0.00 | 40 | 1009.0 |
| 20260831191509 | 80 | 234 | 0.0 | 0.0 | 0.00 | 0.00 | 0.00 | 43 | 1009.3 |
| 20260831190130 | 79 | 233 | 0.0 | 0.0 | 0.00 | 0.00 | 0.00 | 47 | 1009.5 |
| 20260831184539 | 79 | 233 | 1.0 | 0.0 | 0.00 | 0.00 | 0.00 | 41 | 1009.7 |
| 20260831183017 | 80 | 234 | 0.0 | 0.0 | 0.00 | 0.00 | 0.00 | 40 | 1010.1 |
| 20260831181619 | 78 | 233 | 0.0 | 0.0 | 0.00 | 0.00 | 0.00 | 41 | 1010.4 |
| 20260831180014 | 77 | 233 | 0.0 | 0.0 | 0.00 | 0.00 | 0.00 | 41 | 1010.6 |
| 20260831174648 | 76 | 234 | 1.0 | 0.0 | 0.00 | 0.00 | 0.00 | 40 | 1010.9 |
| 20260831173057 | 75 | 234 | 0.0 | 0.0 | 0.00 | 0.00 | 0.00 | 42 | 1011.0 |
| 20260831171508 | 73 | 233 | 1.0 | 0.0 | 0.00 | 0.00 | 0.00 | 44 | 1011.0 |
| 20260831170053 | 72 | 234 | 2.0 | 0.0 | 0.00 | 0.00 | 0.00 | 45 | 1011.2 |
| 20260831164518 | 72 | 234 | 1.0 | 0.0 | 0.00 | 0.00 | 0.00 | 45 | 1011.0 |
| 20260831163114 | 72 | 234 | 1.0 | 0.0 | 0.00 | 0.00 | 0.00 | 46 | 1010.9 |
| 20260831161540 | 71 | 350 | 1.0 | 0.0 | 0.00 | 0.00 | 0.00 | 47 | 1011.0 |
| 20260831160012 | 69 | 350 | 0.0 | 0.0 | 0.00 | 0.00 | 0.00 | 49 | 1011.0 |
| 20260831154509 | 68 | 351 | 0.0 | 0.0 | 0.00 | 0.00 | 0.00 | 52 | 1011.0 |
| 20260831151513 | 64 | 351 | 0.0 | 0.0 | 0.00 | 0.00 | 0.00 | 63 | 1011.3 |
| 20260831150048 | 61 | 351 | 0.0 | 0.0 | 0.00 | 0.00 | 0.00 | 67 | 1011.4 |
| 20260831144514 | 59 | 350 | 0.0 | 0.0 | 0.00 | 0.00 | 0.00 | 71 | 1011.4 |
| 20260831143129 | 59 | 350 | 0.0 | 0.0 | 0.00 | 0.00 | 0.00 | 73 | 1011.5 |
| 20260831141626 | 58 | 351 | 0.0 | 0.0 | 0.00 | 0.00 | 0.00 | 72 | 1011.4 |
| 20260831140111 | 57 | 351 | 0.0 | 0.0 | 0.00 | 0.00 | 0.00 | 70 | 1011.3 |
| 20260831134520 | 56 | 351 | 0.0 | 0.0 | 0.00 | 0.00 | 0.00 | 69 | 1011.0 |
| 20260831133003 | 56 | 350 | 0.0 | 0.0 | 0.00 | 0.00 | 0.00 | 68 | 1010.9 |
| 20260831131618 | 56 | 351 | 0.0 | 0.0 | 0.00 | 0.00 | 0.00 | 66 | 1010.8 |
| 20260831130114 | 57 | 351 | 0.0 | 0.0 | 0.00 | 0.00 | 0.00 | 67 | 1010.7 |
| 20260831124551 | 56 | 351 | 0.0 | 0.0 | 0.00 | 0.00 | 0.00 | 67 | 1010.6 |
| 20260831123028 | 56 | 351 | 0.0 | 0.0 | 0.00 | 0.00 | 0.00 | 69 | 1010.5 |
| 20260831121633 | 56 | 350 | 0.0 | 0.0 | 0.00 | 0.00 | 0.00 | 72 | 1010.7 |
| 20260831120044 | 56 | 350 | 0.0 | 0.0 | 0.00 | 0.00 | 0.00 | 75 | 1010.7 |
| 20260831114508 | 57 | 351 | 0.0 | 0.0 | 0.00 | 0.00 | 0.00 | 77 | 1010.9 |
| 20260831113109 | 57 | 351 | 0.0 | 0.0 | 0.00 | 0.00 | 0.00 | 76 | 1010.9 |
| 20260831111542 | 57 | 350 | 0.0 | 0.0 | 0.00 | 0.00 | 0.00 | 75 | 1010.9 |
| 20260831110018 | 58 | 351 | 0.0 | 0.0 | 0.00 | 0.00 | 0.00 | 73 | 1010.6 |
| 20260831104604 | 58 | 350 | 0.0 | 0.0 | 0.00 | 0.00 | 0.00 | 72 | 1010.7 |
| 20260831103012 | 58 | 351 | 0.0 | 0.0 | 0.00 | 0.00 | 0.00 | 70 | 1010.7 |
| 20260831101625 | 57 | 351 | 0.0 | 0.0 | 0.00 | 0.00 | 0.00 | 66 | 1010.5 |
| 20260831100035 | 57 | 351 | 0.0 | 0.0 | 0.00 | 0.00 | 0.00 | 65 | 1010.3 |